Hourly Data Report for October 16, 2017

All times are specified in Local Standard Time (LST). Add 1 hour to adjust for Daylight Saving Time where and when it is observed.

SATURNA ISLAND CS
BRITISH COLUMBIA

48°47'02.067" N
123°02'41.082" W
24.40 m
1017101
71473
WEZ

Download Data

Hourly Data (October 2017)
Hourly Data Report for October 16, 2017
Temp Definition
°C
Dew Point Temp Definition
°C
Rel Hum Definition
%
Wind Dir Definition
10's deg

Wind Spd Definition
km/h
Visibility Definition
km
Stn Press Definition
kPa
Hmdx Definition


Wind Chill Definition


Weather Definition


TIME
00:00 10.5 8.3 86 16 13   101.97     LegendNANA
01:00 10.5 8.4 87 23 15   101.99     LegendNANA
02:00 10.5 8.7 88 20 10   102.00     LegendNANA
03:00 10.6 8.9 89 21 20   101.96     LegendNANA
04:00 10.8 9.1 89 20 22   101.88     LegendNANA
05:00 10.8 9.0 88 19 22   101.89     LegendNANA
06:00 10.8 8.9 89 18 17   101.90     LegendNANA
07:00 10.8 8.9 88 22 11   101.87     LegendNANA
08:00 11.4 9.1 86 21 5   101.89     LegendNANA
09:00 12.1 8.7 79 17 16   101.85     LegendNANA
10:00 12.7 9.3 80 18 24   101.81     LegendNANA
11:00 12.1 9.0 81 17 24   101.79     LegendNANA
12:00 11.9 8.6 81 17 19   101.79     LegendNANA
13:00 11.0 8.7 86 18 18   101.81     LegendNANA
14:00 10.3 8.8 90 16 23   101.76     LegendNANA
15:00 10.4 8.9 91 16 18   101.78     LegendNANA
16:00 10.5 9.1 91 17 23   101.70     LegendNANA
17:00 10.6 9.2 91 20 5   101.59     LegendNANA
18:00 10.9 9.5 91 19 21   101.49     LegendNANA
19:00 10.8 9.2 90 20 13   101.45     LegendNANA
20:00 10.8 9.4 91 22 19   101.37     LegendNANA
21:00 11.1 9.8 92 19 20   101.31     LegendNANA
22:00 11.7 9.6 87 17 44   101.12     LegendNANA
23:00 11.7 9.5 86 18 41   101.01     LegendNANA

Notes on Data Quality.

Legend

  • E = Estimated
  • M = Missing
  • NA = Not Available
  • ‡ = Partner data that is not subject to review by the National Climate Archives
Date modified: